STARLINK-4368 (53234 NORAD) Tracking and Keplerian Element Data

This shows tracking and keplerian element data for the satellite.

Feedback or suggestion? Click here.




ElementValue
Catalog53234
NameSTARLINK-4368
Epoch Orbit1035
Epoch Day270.11812802
Epoch Year2022
RAAN329.9557
Inclination97.6558
Eccentricity0.0001597
Argument of Perigee75.0959
Mean Anonmoly285.0442
Mean Motion15.01258871
Decay Rate-6.4E-07
L11 53234U 22084AX 22270.11812802 -.00000064 00000+0 -42548-6 0 9999
L22 53234 97.6558 329.9557 0001597 75.0959 285.0442 15.01258871 10358

Live tracking and technical data element details for STARLINK-4368 (NORAD 53234). STARLINK-4368 can be tracked NOW for your location showing map with azimuth and elevation plus other details from your city location.

Track the satellite on the map from your city or location and see movement details for azimuth, elevation, latitude, longitude, range, height, and movement on the map or in text.







IsCatalogInMostPopularTable: catalog: 53234, numindb: 7
Update: records affected: 1



GetName: 53234 STARLINK-4368

Hit Count: updated at: Wed, 28 Sep 2022 22:45:35 GMT